| time (UTC) | temp C | wind direction | speed KPH | gust KPH | rain 1hr cm | rain 24hr cm | rain mn cm | humidity % | barometer mb |
| 20260506203040 | 32 | 239 | 11.3 | 24.1 | 0.00 | 0.00 | 0.00 | 100 | 1017.6 |
| 20260506202540 | 32 | 233 | 14.5 | 22.5 | 0.00 | 0.00 | 0.00 | 100 | 1017.6 |
| 20260506202040 | 32 | 244 | 16.1 | 25.7 | 0.00 | 0.00 | 0.00 | 100 | 1017.7 |
| 20260506201711 | 32 | 240 | 14.5 | 24.1 | 0.00 | 0.00 | 0.00 | 100 | 1017.7 |
| 20260506201540 | 32 | 240 | 14.5 | 24.1 | 0.00 | 0.00 | 0.00 | 100 | 1017.7 |
| 20260506201040 | 33 | 267 | 6.4 | 27.4 | 0.00 | 0.00 | 0.00 | 100 | 1017.6 |
| 20260506200540 | 33 | 241 | 11.3 | 17.7 | 0.00 | 0.00 | 0.00 | 100 | 1017.7 |
| 20260506200040 | 33 | 258 | 17.7 | 19.3 | 0.00 | 0.00 | 0.00 | 100 | 1017.6 |
| 20260506195540 | 33 | 264 | 6.4 | 17.7 | 0.00 | 0.00 | 0.00 | 100 | 1017.6 |
| 20260506195145 | 33 | 326 | 1.6 | 17.7 | 0.00 | 0.00 | 0.00 | 100 | 1017.7 |
| 20260506195040 | 33 | 326 | 1.6 | 17.7 | 0.00 | 0.00 | 0.00 | 100 | 1017.7 |
| 20260506194841 | 33 | 253 | 12.9 | 14.5 | 0.00 | 0.00 | 0.00 | 100 | 1017.7 |
| 20260506194540 | 33 | 253 | 12.9 | 14.5 | 0.00 | 0.00 | 0.00 | 100 | 1017.7 |
| 20260506194040 | 33 | 84 | 3.2 | 8.0 | 0.00 | 0.00 | 0.00 | 100 | 1017.8 |
| 20260506193540 | 33 | 91 | 4.8 | 6.4 | 0.00 | 0.00 | 0.00 | 100 | 1017.9 |
| 20260506193406 | 33 | 144 | 6.4 | 14.5 | 0.00 | 0.00 | 0.00 | 100 | 1018.0 |
| 20260506193040 | 33 | 144 | 6.4 | 14.5 | 0.00 | 0.00 | 0.00 | 100 | 1018.0 |
| 20260506192933 | 34 | 130 | 6.4 | 11.3 | 0.00 | 0.00 | 0.00 | 100 | 1017.9 |
| 20260506192540 | 34 | 130 | 6.4 | 11.3 | 0.00 | 0.00 | 0.00 | 100 | 1017.9 |
| 20260506192040 | 34 | 246 | 3.2 | 11.3 | 0.00 | 0.00 | 0.00 | 100 | 1017.9 |
| 20260506191719 | 33 | 278 | 1.6 | 11.3 | 0.00 | 0.00 | 0.00 | 100 | 1018.0 |
| 20260506191540 | 34 | 244 | 0.0 | 16.1 | 0.00 | 0.00 | 0.00 | 100 | 1017.9 |
| 20260506191040 | 33 | 333 | 3.2 | 11.3 | 0.00 | 0.00 | 0.00 | 100 | 1018.0 |
| 20260506190540 | 33 | 278 | 1.6 | 11.3 | 0.00 | 0.00 | 0.00 | 100 | 1018.0 |
| 20260506190040 | 32 | 306 | 1.6 | 11.3 | 0.00 | 0.00 | 0.00 | 100 | 1018.1 |
| 20260506185625 | 33 | 222 | 3.2 | 11.3 | 0.00 | 0.00 | 0.00 | 100 | 1018.2 |
| 20260506185540 | 33 | 222 | 3.2 | 11.3 | 0.00 | 0.00 | 0.00 | 100 | 1018.2 |
| 20260506185427 | 33 | 158 | 9.7 | 11.3 | 0.00 | 0.00 | 0.00 | 100 | 1018.3 |
| 20260506185040 | 33 | 158 | 9.7 | 11.3 | 0.00 | 0.00 | 0.00 | 100 | 1018.3 |
| 20260506184540 | 33 | 132 | 9.7 | 14.5 | 0.00 | 0.00 | 0.00 | 100 | 1018.5 |
| 20260506184040 | 33 | 8 | 1.6 | 16.1 | 0.00 | 0.00 | 0.00 | 100 | 1018.5 |
| 20260506183729 | 33 | 212 | 12.9 | 16.1 | 0.00 | 0.00 | 0.00 | 100 | 1018.7 |
| 20260506183541 | 33 | 212 | 12.9 | 16.1 | 0.00 | 0.00 | 0.00 | 100 | 1018.7 |
| 20260506183200 | 33 | 286 | 3.2 | 9.7 | 0.00 | 0.00 | 0.00 | 100 | 1018.7 |
| 20260506183041 | 33 | 286 | 3.2 | 9.7 | 0.00 | 0.00 | 0.00 | 100 | 1018.7 |
| 20260506182916 | 33 | 278 | 3.2 | 9.7 | 0.00 | 0.00 | 0.00 | 100 | 1018.8 |
| 20260506182541 | 33 | 278 | 3.2 | 9.7 | 0.00 | 0.00 | 0.00 | 100 | 1018.8 |
| 20260506182519 | 33 | 164 | 0.0 | 11.3 | 0.00 | 0.00 | 0.00 | 100 | 1018.8 |
| 20260506182041 | 33 | 164 | 0.0 | 11.3 | 0.00 | 0.00 | 0.00 | 100 | 1018.8 |
| 20260506181908 | 33 | 210 | 16.1 | 16.1 | 0.00 | 0.00 | 0.00 | 100 | 1019.0 |
| 20260506181541 | 32 | 130 | 6.4 | 17.7 | 0.00 | 0.00 | 0.00 | 100 | 1018.9 |
| 20260506181041 | 33 | 210 | 16.1 | 16.1 | 0.00 | 0.00 | 0.00 | 100 | 1019.0 |
| 20260506181018 | 32 | 232 | 4.8 | 16.1 | 0.00 | 0.00 | 0.00 | 100 | 1019.0 |
| 20260506180541 | 32 | 147 | 3.2 | 17.7 | 0.00 | 0.00 | 0.00 | 100 | 1019.0 |
| 20260506180041 | 32 | 232 | 4.8 | 16.1 | 0.00 | 0.00 | 0.00 | 100 | 1019.0 |
| 20260506180017 | 32 | 151 | 3.2 | 14.5 | 0.00 | 0.00 | 0.00 | 100 | 1018.9 |
| 20260506175541 | 32 | 151 | 3.2 | 14.5 | 0.00 | 0.00 | 0.00 | 100 | 1018.9 |
| 20260506175041 | 33 | 184 | 6.4 | 24.1 | 0.00 | 0.00 | 0.00 | 100 | 1019.1 |
| 20260506174541 | 33 | 209 | 4.8 | 8.0 | 0.00 | 0.00 | 0.00 | 100 | 1019.0 |
| 20260506174041 | 32 | 78 | 0.0 | 11.3 | 0.00 | 0.00 | 0.00 | 100 | 1019.2 |
| 20260506173751 | 32 | 168 | 9.7 | 19.3 | 0.00 | 0.00 | 0.00 | 100 | 1019.2 |
| 20260506173541 | 32 | 168 | 9.7 | 19.3 | 0.00 | 0.00 | 0.00 | 100 | 1019.2 |
| 20260506173041 | 32 | 210 | 8.0 | 12.9 | 0.00 | 0.00 | 0.00 | 100 | 1019.1 |
| 20260506172642 | 31 | 201 | 11.3 | 17.7 | 0.00 | 0.00 | 0.00 | 100 | 1019.2 |
| 20260506172541 | 31 | 274 | 1.6 | 14.5 | 0.00 | 0.00 | 0.00 | 100 | 1019.1 |
| 20260506172041 | 31 | 201 | 11.3 | 17.7 | 0.00 | 0.00 | 0.00 | 100 | 1019.2 |
| 20260506171541 | 32 | 209 | 14.5 | 16.1 | 0.00 | 0.00 | 0.00 | 100 | 1019.2 |
| 20260506171157 | 32 | 227 | 6.4 | 11.3 | 0.00 | 0.00 | 0.00 | 100 | 1019.2 |
| 20260506171041 | 31 | 185 | 6.4 | 17.7 | 0.00 | 0.00 | 0.00 | 100 | 1019.2 |
| 20260506170541 | 32 | 227 | 6.4 | 11.3 | 0.00 | 0.00 | 0.00 | 100 | 1019.2 |
| 20260506170259 | 31 | 192 | 6.4 | 16.1 | 0.00 | 0.00 | 0.00 | 100 | 1019.4 |
| 20260506170041 | 31 | 195 | 8.0 | 14.5 | 0.00 | 0.00 | 0.00 | 100 | 1019.3 |
| 20260506165541 | 31 | 192 | 6.4 | 16.1 | 0.00 | 0.00 | 0.00 | 100 | 1019.4 |
| 20260506165041 | 31 | 215 | 4.8 | 12.9 | 0.00 | 0.00 | 0.00 | 100 | 1019.5 |
| 20260506164541 | 31 | 187 | 9.7 | 17.7 | 0.00 | 0.00 | 0.00 | 100 | 1019.5 |
| 20260506164200 | 31 | 156 | 11.3 | 14.5 | 0.00 | 0.00 | 0.00 | 100 | 1019.5 |
| 20260506164041 | 31 | 156 | 11.3 | 14.5 | 0.00 | 0.00 | 0.00 | 100 | 1019.5 |
| 20260506163541 | 31 | 236 | 8.0 | 16.1 | 0.00 | 0.00 | 0.00 | 100 | 1019.5 |
| 20260506163041 | 31 | 142 | 6.4 | 17.7 | 0.00 | 0.00 | 0.00 | 100 | 1019.6 |
| 20260506162541 | 31 | 178 | 16.1 | 19.3 | 0.00 | 0.00 | 0.00 | 100 | 1019.6 |
| 20260506162120 | 31 | 153 | 12.9 | 19.3 | 0.00 | 0.00 | 0.00 | 100 | 1019.5 |
| 20260506162041 | 31 | 153 | 12.9 | 19.3 | 0.00 | 0.00 | 0.00 | 100 | 1019.5 |
| 20260506161541 | 31 | 167 | 3.2 | 16.1 | 0.00 | 0.00 | 0.00 | 100 | 1019.6 |
| 20260506161112 | 30 | 199 | 3.2 | 16.1 | 0.00 | 0.00 | 0.00 | 100 | 1019.6 |
| 20260506161041 | 30 | 213 | 9.7 | 16.1 | 0.00 | 0.00 | 0.00 | 100 | 1019.6 |
| 20260506160541 | 30 | 118 | 11.3 | 17.7 | 0.00 | 0.00 | 0.00 | 100 | 1019.6 |
| 20260506160041 | 30 | 199 | 3.2 | 16.1 | 0.00 | 0.00 | 0.00 | 100 | 1019.6 |
| 20260506155941 | 31 | 177 | 11.3 | 14.5 | 0.00 | 0.00 | 0.00 | 100 | 1019.6 |
| 20260506155541 | 30 | 227 | 4.8 | 20.9 | 0.00 | 0.00 | 0.00 | 100 | 1019.7 |
| 20260506155041 | 31 | 177 | 11.3 | 14.5 | 0.00 | 0.00 | 0.00 | 100 | 1019.6 |
| 20260506154813 | 31 | 167 | 14.5 | 16.1 | 0.00 | 0.00 | 0.00 | 100 | 1019.6 |
| 20260506154541 | 30 | 219 | 8.0 | 16.1 | 0.00 | 0.00 | 0.00 | 100 | 1019.7 |
| 20260506154041 | 30 | 192 | 6.4 | 20.9 | 0.00 | 0.00 | 0.00 | 100 | 1019.7 |
| 20260506153541 | 31 | 167 | 14.5 | 16.1 | 0.00 | 0.00 | 0.00 | 100 | 1019.6 |
| 20260506153041 | 30 | 140 | 9.7 | 14.5 | 0.00 | 0.00 | 0.00 | 100 | 1019.6 |
| 20260506152541 | 29 | 154 | 4.8 | 16.1 | 0.00 | 0.00 | 0.00 | 100 | 1019.6 |
| 20260506152439 | 29 | 189 | 4.8 | 19.3 | 0.00 | 0.00 | 0.00 | 100 | 1019.6 |
| 20260506152041 | 29 | 189 | 4.8 | 19.3 | 0.00 | 0.00 | 0.00 | 100 | 1019.6 |
| 20260506151541 | 29 | 178 | 9.7 | 19.3 | 0.00 | 0.00 | 0.00 | 100 | 1019.7 |
| 20260506151147 | 29 | 210 | 12.9 | 14.5 | 0.00 | 0.00 | 0.00 | 100 | 1019.7 |
| 20260506151041 | 29 | 210 | 12.9 | 14.5 | 0.00 | 0.00 | 0.00 | 100 | 1019.7 |
| 20260506150541 | 29 | 108 | 4.8 | 17.7 | 0.00 | 0.00 | 0.00 | 100 | 1019.6 |
| 20260506150041 | 29 | 170 | 8.0 | 16.1 | 0.00 | 0.00 | 0.00 | 100 | 1019.6 |
| 20260506145541 | 28 | 251 | 6.4 | 14.5 | 0.00 | 0.00 | 0.00 | 100 | 1019.6 |
| 20260506145041 | 28 | 175 | 11.3 | 19.3 | 0.00 | 0.00 | 0.00 | 100 | 1019.6 |
| 20260506144541 | 28 | 151 | 4.8 | 14.5 | 0.00 | 0.00 | 0.00 | 100 | 1019.5 |
| 20260506144041 | 28 | 160 | 9.7 | 14.5 | 0.00 | 0.00 | 0.00 | 100 | 1019.5 |
| 20260506143629 | 28 | 181 | 12.9 | 17.7 | 0.00 | 0.00 | 0.00 | 100 | 1019.5 |
| 20260506143542 | 28 | 181 | 12.9 | 17.7 | 0.00 | 0.00 | 0.00 | 100 | 1019.5 |
| 20260506143042 | 28 | 206 | 9.7 | 16.1 | 0.00 | 0.00 | 0.00 | 100 | 1019.5 |
| 20260506142542 | 28 | 189 | 9.7 | 16.1 | 0.00 | 0.00 | 0.00 | 100 | 1019.5 |
| 20260506142120 | 27 | 188 | 4.8 | 12.9 | 0.00 | 0.00 | 0.00 | 100 | 1019.5 |
| 20260506142042 | 27 | 188 | 4.8 | 12.9 | 0.00 | 0.00 | 0.00 | 100 | 1019.5 |
| 20260506141542 | 27 | 194 | 3.2 | 17.7 | 0.00 | 0.00 | 0.00 | 100 | 1019.5 |
| 20260506141329 | 27 | 182 | 14.5 | 14.5 | 0.00 | 0.00 | 0.00 | 100 | 1019.6 |
| 20260506141042 | 27 | 182 | 14.5 | 14.5 | 0.00 | 0.00 | 0.00 | 100 | 1019.6 |
| 20260506140542 | 27 | 157 | 6.4 | 14.5 | 0.00 | 0.00 | 0.00 | 100 | 1019.6 |
| 20260506140042 | 27 | 191 | 9.7 | 16.1 | 0.00 | 0.00 | 0.00 | 100 | 1019.6 |
| 20260506135542 | 27 | 171 | 8.0 | 16.1 | 0.00 | 0.00 | 0.00 | 100 | 1019.5 |
| 20260506135042 | 26 | 194 | 11.3 | 16.1 | 0.00 | 0.00 | 0.00 | 100 | 1019.6 |
| 20260506134542 | 26 | 174 | 8.0 | 17.7 | 0.00 | 0.00 | 0.00 | 100 | 1019.5 |
| 20260506134216 | 26 | 161 | 8.0 | 17.7 | 0.00 | 0.00 | 0.00 | 100 | 1019.5 |
| 20260506134042 | 26 | 161 | 8.0 | 17.7 | 0.00 | 0.00 | 0.00 | 100 | 1019.5 |
| 20260506133956 | 25 | 165 | 16.1 | 17.7 | 0.00 | 0.00 | 0.00 | 100 | 1019.4 |
| 20260506133542 | 25 | 184 | 9.7 | 19.3 | 0.00 | 0.00 | 0.00 | 100 | 1019.4 |
| 20260506133042 | 25 | 165 | 16.1 | 17.7 | 0.00 | 0.00 | 0.00 | 100 | 1019.4 |
| 20260506132700 | 26 | 91 | 11.3 | 16.1 | 0.00 | 0.00 | 0.00 | 100 | 1019.4 |
| 20260506132542 | 26 | 91 | 11.3 | 16.1 | 0.00 | 0.00 | 0.00 | 100 | 1019.4 |
| 20260506132127 | 25 | 115 | 8.0 | 19.3 | 0.00 | 0.00 | 0.00 | 100 | 1019.4 |
| 20260506132042 | 25 | 115 | 8.0 | 19.3 | 0.00 | 0.00 | 0.00 | 100 | 1019.4 |
| 20260506131713 | 25 | 150 | 8.0 | 14.5 | 0.00 | 0.00 | 0.00 | 100 | 1019.3 |
| 20260506131614 | 25 | 150 | 8.0 | 14.5 | 0.00 | 0.00 | 0.00 | 100 | 1019.3 |
| 20260506131542 | 25 | 150 | 8.0 | 14.5 | 0.00 | 0.00 | 0.00 | 100 | 1019.3 |
| 20260506131214 | 25 | 130 | 6.4 | 16.1 | 0.00 | 0.00 | 0.00 | 100 | 1019.4 |
| 20260506131121 | 25 | 130 | 6.4 | 16.1 | 0.00 | 0.00 | 0.00 | 100 | 1019.4 |
| 20260506131042 | 25 | 130 | 6.4 | 16.1 | 0.00 | 0.00 | 0.00 | 100 | 1019.4 |
| 20260506130708 | 25 | 156 | 11.3 | 16.1 | 0.00 | 0.00 | 0.00 | 100 | 1019.3 |
| 20260506130542 | 25 | 156 | 11.3 | 16.1 | 0.00 | 0.00 | 0.00 | 100 | 1019.3 |
| 20260506130042 | 25 | 182 | 4.8 | 11.3 | 0.00 | 0.00 | 0.00 | 100 | 1019.3 |
| 20260506125542 | 25 | 188 | 3.2 | 11.3 | 0.00 | 0.00 | 0.00 | 100 | 1019.2 |
| 20260506125223 | 24 | 132 | 8.0 | 11.3 | 0.00 | 0.00 | 0.00 | 100 | 1019.2 |
| 20260506125042 | 24 | 132 | 8.0 | 11.3 | 0.00 | 0.00 | 0.00 | 100 | 1019.2 |
| 20260506124923 | 22 | 156 | 4.8 | 8.0 | 0.00 | 0.00 | 0.00 | 100 | 1019.1 |
| 20260506124542 | 23 | 132 | 6.4 | 11.3 | 0.00 | 0.00 | 0.00 | 100 | 1019.1 |
| 20260506124133 | 23 | 147 | 11.3 | 11.3 | 0.00 | 0.00 | 0.00 | 100 | 1019.1 |
| 20260506124042 | 23 | 147 | 11.3 | 11.3 | 0.00 | 0.00 | 0.00 | 100 | 1019.1 |
| 20260506123619 | 22 | 125 | 3.2 | 11.3 | 0.00 | 0.00 | 0.00 | 100 | 1019.1 |
| 20260506123542 | 22 | 125 | 3.2 | 11.3 | 0.00 | 0.00 | 0.00 | 100 | 1019.1 |
| 20260506123131 | 22 | 156 | 4.8 | 8.0 | 0.00 | 0.00 | 0.00 | 100 | 1019.1 |
| 20260506123042 | 22 | 156 | 4.8 | 8.0 | 0.00 | 0.00 | 0.00 | 100 | 1019.1 |
| 20260506122642 | 21 | 150 | 3.2 | 8.0 | 0.00 | 0.00 | 0.00 | 100 | 1019.1 |
| 20260506122542 | 21 | 150 | 3.2 | 8.0 | 0.00 | 0.00 | 0.00 | 100 | 1019.1 |
| 20260506122515 | 20 | 77 | 0.0 | 0.0 | 0.00 | 0.00 | 0.00 | 100 | 1018.9 |
| 20260506122042 | 21 | 142 | 1.6 | 8.0 | 0.00 | 0.00 | 0.00 | 100 | 1019.0 |
| 20260506121542 | 21 | 77 | 0.0 | 0.0 | 0.00 | 0.00 | 0.00 | 100 | 1019.0 |
| 20260506121042 | 21 | 77 | 0.0 | 0.0 | 0.00 | 0.00 | 0.00 | 100 | 1018.9 |
| 20260506120626 | 20 | 77 | 0.0 | 0.0 | 0.00 | 0.00 | 0.00 | 100 | 1018.9 |
| 20260506120542 | 20 | 77 | 0.0 | 0.0 | 0.00 | 0.00 | 0.00 | 100 | 1018.9 |
| 20260506120131 | 20 | 77 | 0.0 | 0.0 | 0.00 | 0.00 | 0.00 | 100 | 1018.9 |
| 20260506120042 | 20 | 77 | 0.0 | 0.0 | 0.00 | 0.00 | 0.00 | 100 | 1018.9 |
| 20260506115542 | 20 | 77 | 0.0 | 0.0 | 0.00 | 0.00 | 0.00 | 100 | 1018.9 |
| 20260506115042 | 20 | 77 | 0.0 | 0.0 | 0.00 | 0.00 | 0.00 | 100 | 1018.8 |
| 20260506114746 | 20 | 77 | 0.0 | 0.0 | 0.00 | 0.00 | 0.00 | 100 | 1018.7 |
| 20260506114710 | 20 | 77 | 0.0 | 0.0 | 0.00 | 0.00 | 0.00 | 100 | 1018.7 |
| 20260506114542 | 20 | 77 | 0.0 | 0.0 | 0.00 | 0.00 | 0.00 | 100 | 1018.7 |
| 20260506114042 | 18 | 77 | 0.0 | 0.0 | 0.00 | 0.00 | 0.00 | 100 | 1018.7 |
| 20260506113542 | 18 | 77 | 0.0 | 0.0 | 0.00 | 0.00 | 0.00 | 100 | 1018.8 |
| 20260506113042 | 17 | 77 | 0.0 | 0.0 | 0.00 | 0.00 | 0.00 | 100 | 1018.7 |
| 20260506112542 | 17 | 77 | 0.0 | 0.0 | 0.00 | 0.00 | 0.00 | 100 | 1018.6 |
| 20260506112042 | 17 | 77 | 0.0 | 0.0 | 0.00 | 0.00 | 0.00 | 100 | 1018.5 |
| 20260506111847 | 17 | 77 | 0.0 | 0.0 | 0.00 | 0.00 | 0.00 | 100 | 1018.5 |
| 20260506111648 | 17 | 77 | 0.0 | 0.0 | 0.00 | 0.00 | 0.00 | 100 | 1018.5 |
| 20260506111542 | 17 | 77 | 0.0 | 0.0 | 0.00 | 0.00 | 0.00 | 100 | 1018.5 |
| 20260506111405 | 16 | 77 | 0.0 | 0.0 | 0.00 | 0.00 | 0.00 | 100 | 1018.1 |
| 20260506111042 | 17 | 77 | 0.0 | 0.0 | 0.00 | 0.00 | 0.00 | 100 | 1018.4 |
| 20260506110542 | 17 | 77 | 0.0 | 0.0 | 0.00 | 0.00 | 0.00 | 100 | 1018.3 |
| 20260506110042 | 16 | 77 | 0.0 | 0.0 | 0.00 | 0.00 | 0.00 | 100 | 1018.2 |
| 20260506105542 | 16 | 77 | 0.0 | 0.0 | 0.00 | 0.00 | 0.00 | 100 | 1018.2 |
| 20260506105042 | 16 | 77 | 0.0 | 0.0 | 0.00 | 0.00 | 0.00 | 100 | 1018.2 |
| 20260506104542 | 16 | 77 | 0.0 | 0.0 | 0.00 | 0.00 | 0.00 | 100 | 1018.1 |
| 20260506104358 | 16 | 77 | 0.0 | 0.0 | 0.00 | 0.00 | 0.00 | 100 | 1017.8 |
| 20260506104042 | 17 | 77 | 0.0 | 0.0 | 0.00 | 0.00 | 0.00 | 100 | 1018.1 |
| 20260506103543 | 17 | 77 | 0.0 | 0.0 | 0.00 | 0.00 | 0.00 | 100 | 1018.0 |
| 20260506103043 | 16 | 77 | 0.0 | 0.0 | 0.00 | 0.00 | 0.00 | 100 | 1017.8 |
| 20260506102543 | 16 | 77 | 0.0 | 0.0 | 0.00 | 0.00 | 0.00 | 100 | 1018.0 |
| 20260506102043 | 16 | 77 | 0.0 | 0.0 | 0.00 | 0.00 | 0.00 | 100 | 1018.0 |
| 20260506101543 | 16 | 77 | 0.0 | 0.0 | 0.00 | 0.00 | 0.00 | 100 | 1017.9 |
| 20260506101043 | 16 | 77 | 0.0 | 0.0 | 0.00 | 0.00 | 0.00 | 100 | 1017.9 |
| 20260506100543 | 16 | 77 | 0.0 | 0.0 | 0.00 | 0.00 | 0.00 | 100 | 1017.9 |
| 20260506100043 | 16 | 77 | 0.0 | 0.0 | 0.00 | 0.00 | 0.00 | 100 | 1017.8 |
| 20260506095543 | 16 | 77 | 0.0 | 0.0 | 0.00 | 0.00 | 0.00 | 100 | 1017.9 |
| 20260506095043 | 16 | 77 | 0.0 | 0.0 | 0.00 | 0.00 | 0.00 | 100 | 1017.9 |
| 20260506094543 | 16 | 77 | 0.0 | 0.0 | 0.00 | 0.00 | 0.00 | 100 | 1018.0 |
| 20260506094043 | 16 | 77 | 0.0 | 0.0 | 0.00 | 0.00 | 0.00 | 100 | 1017.8 |
| 20260506093759 | 16 | 77 | 0.0 | 0.0 | 0.00 | 0.00 | 0.00 | 100 | 1017.8 |
| 20260506093543 | 16 | 77 | 0.0 | 0.0 | 0.00 | 0.00 | 0.00 | 100 | 1017.8 |
| 20260506093043 | 16 | 77 | 0.0 | 0.0 | 0.00 | 0.00 | 0.00 | 100 | 1017.9 |
| 20260506092543 | 17 | 77 | 0.0 | 0.0 | 0.00 | 0.00 | 0.00 | 100 | 1017.9 |
| 20260506092043 | 16 | 77 | 0.0 | 0.0 | 0.00 | 0.00 | 0.00 | 100 | 1017.9 |
| 20260506091615 | 17 | 77 | 0.0 | 0.0 | 0.00 | 0.00 | 0.00 | 100 | 1018.0 |
| 20260506091543 | 17 | 77 | 0.0 | 0.0 | 0.00 | 0.00 | 0.00 | 100 | 1018.0 |
| 20260506091338 | 17 | 77 | 0.0 | 0.0 | 0.00 | 0.00 | 0.00 | 100 | 1018.0 |
| 20260506091043 | 17 | 77 | 0.0 | 0.0 | 0.00 | 0.00 | 0.00 | 100 | 1018.0 |
| 20260506090731 | 17 | 77 | 0.0 | 0.0 | 0.00 | 0.00 | 0.00 | 100 | 1018.0 |
| 20260506090543 | 17 | 77 | 0.0 | 0.0 | 0.00 | 0.00 | 0.00 | 100 | 1018.0 |
| 20260506090043 | 17 | 77 | 0.0 | 0.0 | 0.00 | 0.00 | 0.00 | 100 | 1018.0 |
| 20260506085636 | 17 | 77 | 0.0 | 0.0 | 0.00 | 0.00 | 0.00 | 100 | 1018.1 |
| 20260506085543 | 17 | 77 | 0.0 | 0.0 | 0.00 | 0.00 | 0.00 | 100 | 1018.1 |
| 20260506085242 | 17 | 77 | 0.0 | 0.0 | 0.00 | 0.00 | 0.00 | 100 | 1018.1 |
| 20260506085043 | 17 | 77 | 0.0 | 0.0 | 0.00 | 0.00 | 0.00 | 100 | 1018.1 |
| 20260506084543 | 17 | 77 | 0.0 | 0.0 | 0.00 | 0.00 | 0.00 | 100 | 1018.1 |
| 20260506084504 | 17 | 77 | 0.0 | 0.0 | 0.00 | 0.00 | 0.00 | 100 | 1018.1 |
| 20260506084043 | 17 | 77 | 0.0 | 0.0 | 0.00 | 0.00 | 0.00 | 100 | 1018.0 |
| 20260506083802 | 17 | 77 | 0.0 | 0.0 | 0.00 | 0.00 | 0.00 | 100 | 1018.1 |
| 20260506083643 | 17 | 77 | 0.0 | 0.0 | 0.00 | 0.00 | 0.00 | 100 | 1018.1 |
| 20260506083543 | 17 | 77 | 0.0 | 0.0 | 0.00 | 0.00 | 0.00 | 100 | 1018.1 |
| 20260506083132 | 17 | 77 | 0.0 | 0.0 | 0.00 | 0.00 | 0.00 | 100 | 1018.0 |
| 20260506083043 | 17 | 77 | 0.0 | 0.0 | 0.00 | 0.00 | 0.00 | 100 | 1018.0 |
| 20260506082718 | 17 | 77 | 0.0 | 0.0 | 0.00 | 0.00 | 0.00 | 100 | 1018.0 |
| 20260506082543 | 17 | 77 | 0.0 | 0.0 | 0.00 | 0.00 | 0.00 | 100 | 1018.0 |
| 20260506082043 | 17 | 77 | 0.0 | 0.0 | 0.00 | 0.00 | 0.00 | 100 | 1018.0 |
| 20260506081719 | 17 | 77 | 0.0 | 0.0 | 0.00 | 0.00 | 0.00 | 100 | 1017.9 |
| 20260506081709 | 17 | 77 | 0.0 | 0.0 | 0.00 | 0.00 | 0.00 | 100 | 1017.9 |
| 20260506081543 | 17 | 77 | 0.0 | 0.0 | 0.00 | 0.00 | 0.00 | 100 | 1017.9 |
| 20260506081043 | 17 | 77 | 0.0 | 0.0 | 0.00 | 0.00 | 0.00 | 100 | 1017.9 |
| 20260506080543 | 17 | 77 | 0.0 | 0.0 | 0.00 | 0.00 | 0.00 | 100 | 1018.0 |
| 20260506080126 | 18 | 85 | 0.0 | 1.6 | 0.00 | 0.00 | 0.00 | 100 | 1017.7 |
| 20260506073043 | 17 | 57 | 0.0 | 0.0 | 0.00 | 0.00 | 0.00 | 100 | 1018.1 |
| 20260506072943 | 18 | 57 | 0.0 | 0.0 | 0.00 | 0.00 | 0.00 | 100 | 1018.1 |
| 20260506072543 | 17 | 57 | 0.0 | 0.0 | 0.00 | 0.00 | 0.00 | 100 | 1018.0 |
| 20260506072043 | 18 | 57 | 0.0 | 0.0 | 0.00 | 0.00 | 0.00 | 100 | 1018.1 |
| 20260506071543 | 18 | 57 | 0.0 | 0.0 | 0.00 | 0.00 | 0.00 | 100 | 1018.1 |
| 20260506071201 | 18 | 57 | 0.0 | 0.0 | 0.00 | 0.00 | 0.00 | 100 | 1018.2 |
| 20260506071043 | 17 | 57 | 0.0 | 0.0 | 0.00 | 0.00 | 0.00 | 100 | 1018.1 |
| 20260506070543 | 18 | 57 | 0.0 | 0.0 | 0.00 | 0.00 | 0.00 | 100 | 1018.2 |
| 20260506062044 | 18 | 57 | 0.0 | 0.0 | 0.00 | 0.00 | 0.00 | 100 | 1018.4 |
| 20260506061630 | 18 | 57 | 0.0 | 0.0 | 0.00 | 0.00 | 0.00 | 100 | 1018.4 |
| 20260506061621 | 18 | 57 | 0.0 | 0.0 | 0.00 | 0.00 | 0.00 | 100 | 1018.5 |
| 20260506061544 | 18 | 57 | 0.0 | 0.0 | 0.00 | 0.00 | 0.00 | 100 | 1018.5 |
| 20260506061044 | 18 | 57 | 0.0 | 0.0 | 0.00 | 0.00 | 0.00 | 100 | 1018.4 |
| 20260506061004 | 18 | 57 | 0.0 | 0.0 | 0.00 | 0.00 | 0.00 | 100 | 1018.5 |
| 20260506060544 | 18 | 57 | 0.0 | 0.0 | 0.00 | 0.00 | 0.00 | 100 | 1018.5 |
| 20260506051044 | 20 | 67 | 0.0 | 1.6 | 0.00 | 0.00 | 0.00 | 100 | 1019.1 |
| 20260506050544 | 20 | 78 | 0.0 | 3.2 | 0.00 | 0.00 | 0.00 | 100 | 1019.1 |
| 20260506050253 | 20 | 91 | 0.0 | 0.0 | 0.00 | 0.00 | 0.00 | 100 | 1019.1 |
| 20260506045044 | 20 | 57 | 0.0 | 1.6 | 0.00 | 0.00 | 0.00 | 100 | 1019.2 |
| 20260506045037 | 20 | 97 | 1.6 | 1.6 | 0.00 | 0.00 | 0.00 | 100 | 1019.1 |
| 20260506044544 | 20 | 97 | 1.6 | 1.6 | 0.00 | 0.00 | 0.00 | 100 | 1019.1 |
| 20260506044252 | 21 | 90 | 1.6 | 3.2 | 0.00 | 0.00 | 0.00 | 100 | 1019.1 |
| 20260506044044 | 21 | 90 | 1.6 | 3.2 | 0.00 | 0.00 | 0.00 | 100 | 1019.1 |
| 20260506043717 | 21 | 87 | 1.6 | 4.8 | 0.00 | 0.00 | 0.00 | 100 | 1019.1 |
| 20260506043544 | 21 | 87 | 1.6 | 4.8 | 0.00 | 0.00 | 0.00 | 100 | 1019.1 |
| 20260506043133 | 21 | 132 | 3.2 | 4.8 | 0.00 | 0.00 | 0.00 | 100 | 1019.0 |
| 20260506043044 | 21 | 116 | 1.6 | 4.8 | 0.00 | 0.00 | 0.00 | 100 | 1019.1 |
| 20260506042544 | 21 | 132 | 3.2 | 4.8 | 0.00 | 0.00 | 0.00 | 100 | 1019.0 |
| 20260506042331 | 21 | 92 | 3.2 | 6.4 | 0.00 | 0.00 | 0.00 | 100 | 1019.0 |
| 20260506042044 | 21 | 139 | 4.8 | 6.4 | 0.00 | 0.00 | 0.00 | 100 | 1018.9 |
| 20260506041544 | 21 | 92 | 3.2 | 6.4 | 0.00 | 0.00 | 0.00 | 100 | 1019.0 |
| 20260506041139 | 21 | 119 | 4.8 | 8.0 | 0.00 | 0.00 | 0.00 | 100 | 1019.0 |
| 20260506041044 | 21 | 119 | 4.8 | 8.0 | 0.00 | 0.00 | 0.00 | 100 | 1019.0 |
| 20260506040716 | 21 | 102 | 3.2 | 4.8 | 0.00 | 0.00 | 0.00 | 100 | 1019.0 |
| 20260506040544 | 21 | 102 | 3.2 | 4.8 | 0.00 | 0.00 | 0.00 | 100 | 1019.0 |
| 20260506040204 | 21 | 123 | 1.6 | 4.8 | 0.00 | 0.00 | 0.00 | 100 | 1018.9 |
| 20260506040044 | 21 | 123 | 1.6 | 4.8 | 0.00 | 0.00 | 0.00 | 100 | 1018.9 |
| 20260506035804 | 22 | 95 | 3.2 | 6.4 | 0.00 | 0.00 | 0.00 | 100 | 1019.1 |
| 20260506035544 | 22 | 91 | 1.6 | 4.8 | 0.00 | 0.00 | 0.00 | 100 | 1019.0 |
| 20260506035044 | 22 | 95 | 3.2 | 6.4 | 0.00 | 0.00 | 0.00 | 100 | 1019.1 |
| 20260506034544 | 22 | 71 | 3.2 | 4.8 | 0.00 | 0.00 | 0.00 | 100 | 1019.1 |
| 20260506034044 | 22 | 111 | 3.2 | 4.8 | 0.00 | 0.00 | 0.00 | 100 | 1019.2 |
| 20260506033705 | 22 | 113 | 3.2 | 4.8 | 0.00 | 0.00 | 0.00 | 100 | 1019.1 |
| 20260506033544 | 22 | 80 | 4.8 | 4.8 | 0.00 | 0.00 | 0.00 | 100 | 1019.2 |
| 20260506033044 | 22 | 113 | 3.2 | 4.8 | 0.00 | 0.00 | 0.00 | 100 | 1019.1 |
| 20260506033008 | 22 | 149 | 4.8 | 8.0 | 0.00 | 0.00 | 0.00 | 100 | 1019.2 |
| 20260506032544 | 22 | 149 | 4.8 | 8.0 | 0.00 | 0.00 | 0.00 | 100 | 1019.2 |
| 20260506032234 | 23 | 92 | 4.8 | 8.0 | 0.00 | 0.00 | 0.00 | 100 | 1019.1 |
| 20260506032044 | 23 | 150 | 3.2 | 8.0 | 0.00 | 0.00 | 0.00 | 100 | 1019.1 |
| 20260506031544 | 23 | 92 | 4.8 | 8.0 | 0.00 | 0.00 | 0.00 | 100 | 1019.1 |
| 20260506031210 | 23 | 104 | 3.2 | 8.0 | 0.00 | 0.00 | 0.00 | 100 | 1019.1 |
| 20260506031044 | 23 | 104 | 3.2 | 8.0 | 0.00 | 0.00 | 0.00 | 100 | 1019.1 |
| 20260506030702 | 23 | 95 | 6.4 | 8.0 | 0.00 | 0.00 | 0.00 | 100 | 1019.0 |
| 20260506030544 | 23 | 95 | 6.4 | 8.0 | 0.00 | 0.00 | 0.00 | 100 | 1019.0 |
| 20260506030420 | 23 | 125 | 6.4 | 8.0 | 0.00 | 0.00 | 0.00 | 100 | 1019.0 |
| 20260506030044 | 23 | 125 | 6.4 | 8.0 | 0.00 | 0.00 | 0.00 | 100 | 1019.0 |
| 20260506025548 | 23 | 59 | 6.4 | 9.7 | 0.00 | 0.00 | 0.00 | 100 | 1019.0 |
| 20260506025544 | 23 | 129 | 6.4 | 9.7 | 0.00 | 0.00 | 0.00 | 100 | 1019.0 |
| 20260506025134 | 23 | 120 | 3.2 | 9.7 | 0.00 | 0.00 | 0.00 | 100 | 1018.9 |
| 20260506025044 | 23 | 59 | 6.4 | 9.7 | 0.00 | 0.00 | 0.00 | 100 | 1019.0 |
| 20260506024545 | 23 | 120 | 3.2 | 9.7 | 0.00 | 0.00 | 0.00 | 100 | 1018.9 |
| 20260506024531 | 23 | 120 | 4.8 | 11.3 | 0.00 | 0.00 | 0.00 | 100 | 1018.9 |
| 20260506024045 | 23 | 120 | 4.8 | 11.3 | 0.00 | 0.00 | 0.00 | 100 | 1018.9 |
| 20260506024031 | 23 | 46 | 1.6 | 14.5 | 0.00 | 0.00 | 0.00 | 100 | 1018.8 |
| 20260506023545 | 23 | 46 | 1.6 | 14.5 | 0.00 | 0.00 | 0.00 | 100 | 1018.8 |
| 20260506023045 | 23 | 82 | 3.2 | 6.4 | 0.00 | 0.00 | 0.00 | 100 | 1018.8 |
| 20260506022631 | 23 | 109 | 3.2 | 12.9 | 0.00 | 0.00 | 0.00 | 100 | 1018.7 |
| 20260506022545 | 23 | 137 | 6.4 | 8.0 | 0.00 | 0.00 | 0.00 | 100 | 1018.7 |
| 20260506022045 | 23 | 109 | 3.2 | 12.9 | 0.00 | 0.00 | 0.00 | 100 | 1018.7 |
| 20260506021740 | 23 | 106 | 9.7 | 11.3 | 0.00 | 0.00 | 0.00 | 100 | 1018.6 |
| 20260506021545 | 23 | 106 | 9.7 | 11.3 | 0.00 | 0.00 | 0.00 | 100 | 1018.6 |
| 20260506021045 | 23 | 2 | 0.0 | 4.8 | 0.00 | 0.00 | 0.00 | 100 | 1018.6 |
| 20260506021037 | 23 | 97 | 4.8 | 9.7 | 0.00 | 0.00 | 0.00 | 100 | 1018.7 |
| 20260506020629 | 23 | 97 | 4.8 | 9.7 | 0.00 | 0.00 | 0.00 | 100 | 1018.7 |
| 20260506020545 | 23 | 97 | 4.8 | 9.7 | 0.00 | 0.00 | 0.00 | 100 | 1018.7 |
| 20260506020045 | 22 | 130 | 6.4 | 9.7 | 0.00 | 0.00 | 0.00 | 100 | 1018.6 |
| 20260506015933 | 23 | 19 | 0.0 | 6.4 | 0.00 | 0.00 | 0.00 | 100 | 1018.5 |
| 20260506015545 | 23 | 19 | 0.0 | 6.4 | 0.00 | 0.00 | 0.00 | 100 | 1018.5 |
| 20260506015503 | 22 | 26 | 1.6 | 3.2 | 0.00 | 0.00 | 0.00 | 100 | 1018.5 |
| 20260506015045 | 22 | 26 | 1.6 | 3.2 | 0.00 | 0.00 | 0.00 | 100 | 1018.5 |
| 20260506014545 | 23 | 98 | 3.2 | 4.8 | 0.00 | 0.00 | 0.00 | 100 | 1018.4 |
| 20260506014533 | 23 | 109 | 3.2 | 4.8 | 0.00 | 0.00 | 0.00 | 100 | 1018.3 |
| 20260506014045 | 23 | 109 | 3.2 | 4.8 | 0.00 | 0.00 | 0.00 | 100 | 1018.3 |
| 20260506013828 | 23 | 19 | 1.6 | 8.0 | 0.00 | 0.00 | 0.00 | 100 | 1018.3 |
| 20260506013545 | 23 | 19 | 1.6 | 8.0 | 0.00 | 0.00 | 0.00 | 100 | 1018.3 |
| 20260506013504 | 23 | 333 | 4.8 | 12.9 | 0.00 | 0.00 | 0.00 | 100 | 1018.1 |
| 20260506013413 | 23 | 358 | 6.4 | 8.0 | 0.00 | 0.00 | 0.00 | 100 | 1018.3 |
| 20260506013141 | 23 | 358 | 6.4 | 8.0 | 0.00 | 0.00 | 0.00 | 100 | 1018.3 |
| 20260506013045 | 23 | 358 | 6.4 | 8.0 | 0.00 | 0.00 | 0.00 | 100 | 1018.3 |
| 20260506013017 | 23 | 333 | 4.8 | 12.9 | 0.00 | 0.00 | 0.00 | 100 | 1018.1 |
| 20260506012545 | 23 | 333 | 4.8 | 12.9 | 0.00 | 0.00 | 0.00 | 100 | 1018.1 |
| 20260506012045 | 23 | 330 | 8.0 | 9.7 | 0.00 | 0.00 | 0.00 | 100 | 1018.2 |
| 20260506012042 | 23 | 350 | 6.4 | 6.4 | 0.00 | 0.00 | 0.00 | 100 | 1018.1 |
| 20260506011758 | 23 | 358 | 4.8 | 6.4 | 0.00 | 0.00 | 0.00 | 100 | 1018.2 |
| 20260506011551 | 23 | 350 | 6.4 | 6.4 | 0.00 | 0.00 | 0.00 | 100 | 1018.1 |
| 20260506011545 | 23 | 358 | 4.8 | 6.4 | 0.00 | 0.00 | 0.00 | 100 | 1018.2 |
| 20260506011045 | 23 | 350 | 6.4 | 6.4 | 0.00 | 0.00 | 0.00 | 100 | 1018.1 |
| 20260506010800 | 23 | 4 | 0.0 | 0.0 | 0.00 | 0.00 | 0.00 | 100 | 1018.0 |
| 20260506010545 | 23 | 4 | 0.0 | 0.0 | 0.00 | 0.00 | 0.00 | 100 | 1018.0 |
| 20260506010045 | 24 | 4 | 0.0 | 1.6 | 0.00 | 0.00 | 0.00 | 100 | 1018.0 |
| 20260506005900 | 24 | 333 | 0.0 | 3.2 | 0.00 | 0.00 | 0.00 | 100 | 1017.9 |
| 20260506005747 | 24 | 333 | 0.0 | 3.2 | 0.00 | 0.00 | 0.00 | 100 | 1017.9 |
| 20260506005545 | 24 | 333 | 0.0 | 3.2 | 0.00 | 0.00 | 0.00 | 100 | 1017.9 |
| 20260506005530 | 24 | 14 | 0.0 | 3.2 | 0.00 | 0.00 | 0.00 | 100 | 1017.8 |
| 20260506005239 | 25 | 26 | 0.0 | 6.4 | 0.00 | 0.00 | 0.00 | 100 | 1017.6 |
| 20260506005045 | 24 | 14 | 0.0 | 3.2 | 0.00 | 0.00 | 0.00 | 100 | 1017.8 |
| 20260506005032 | 24 | 2 | 0.0 | 0.0 | 0.00 | 0.00 | 0.00 | 100 | 1017.9 |
| 20260506004545 | 24 | 2 | 0.0 | 0.0 | 0.00 | 0.00 | 0.00 | 100 | 1017.9 |
| 20260506004510 | 25 | 2 | 0.0 | 0.0 | 0.00 | 0.00 | 0.00 | 100 | 1017.8 |
| 20260506004045 | 25 | 2 | 0.0 | 0.0 | 0.00 | 0.00 | 0.00 | 100 | 1017.8 |
| 20260506003816 | 25 | 2 | 0.0 | 0.0 | 0.00 | 0.00 | 0.00 | 100 | 1017.7 |
| 20260506003545 | 25 | 2 | 0.0 | 0.0 | 0.00 | 0.00 | 0.00 | 100 | 1017.7 |
| 20260506003045 | 25 | 2 | 0.0 | 3.2 | 0.00 | 0.00 | 0.00 | 100 | 1017.7 |
| 20260506002940 | 25 | 26 | 0.0 | 6.4 | 0.00 | 0.00 | 0.00 | 100 | 1017.6 |
| 20260506002545 | 25 | 26 | 0.0 | 6.4 | 0.00 | 0.00 | 0.00 | 100 | 1017.6 |
| 20260506002404 | 25 | 1 | 0.0 | 1.6 | 0.00 | 0.00 | 0.00 | 100 | 1017.6 |
| 20260506002045 | 25 | 1 | 0.0 | 1.6 | 0.00 | 0.00 | 0.00 | 100 | 1017.6 |
| 20260506001824 | 25 | 315 | 1.6 | 9.7 | 0.00 | 0.00 | 0.00 | 100 | 1017.3 |
| 20260506001545 | 25 | 337 | 0.0 | 6.4 | 0.00 | 0.00 | 0.00 | 100 | 1017.4 |
| 20260506001045 | 25 | 315 | 1.6 | 9.7 | 0.00 | 0.00 | 0.00 | 100 | 1017.3 |
| 20260506000720 | 26 | 7 | 6.4 | 11.3 | 0.00 | 0.00 | 0.00 | 100 | 1017.0 |
| 20260506000545 | 25 | 337 | 4.8 | 8.0 | 0.00 | 0.00 | 0.00 | 100 | 1017.2 |
| 20260506000045 | 26 | 319 | 3.2 | 11.3 | 0.00 | 0.00 | 0.00 | 100 | 1017.0 |
| 20260505235748 | 26 | 336 | 3.2 | 11.3 | 0.00 | 0.00 | 0.00 | 100 | 1017.0 |
| 20260505235545 | 26 | 7 | 6.4 | 11.3 | 0.00 | 0.00 | 0.00 | 100 | 1017.0 |
| 20260505235310 | 26 | 336 | 3.2 | 11.3 | 0.00 | 0.00 | 0.00 | 100 | 1017.0 |
| 20260505235045 | 26 | 336 | 3.2 | 11.3 | 0.00 | 0.00 | 0.00 | 100 | 1017.0 |
| 20260505234923 | 26 | 358 | 4.8 | 11.3 | 0.00 | 0.00 | 0.00 | 100 | 1016.9 |
| 20260505234812 | 26 | 358 | 4.8 | 11.3 | 0.00 | 0.00 | 0.00 | 100 | 1016.9 |
| 20260505234545 | 26 | 358 | 4.8 | 11.3 | 0.00 | 0.00 | 0.00 | 100 | 1016.9 |
| 20260505234529 | 26 | 350 | 6.4 | 14.5 | 0.00 | 0.00 | 0.00 | 100 | 1016.7 |
| 20260505234457 | 26 | 350 | 6.4 | 14.5 | 0.00 | 0.00 | 0.00 | 100 | 1016.7 |
| 20260505234045 | 26 | 350 | 6.4 | 14.5 | 0.00 | 0.00 | 0.00 | 100 | 1016.7 |
| 20260505233952 | 27 | 2 | 0.0 | 11.3 | 0.00 | 0.00 | 0.00 | 100 | 1016.7 |
| 20260505233545 | 27 | 2 | 0.0 | 11.3 | 0.00 | 0.00 | 0.00 | 100 | 1016.7 |
| 20260505233457 | 27 | 1 | 1.6 | 11.3 | 0.00 | 0.00 | 0.00 | 100 | 1016.8 |
| 20260505233329 | 27 | 1 | 1.6 | 11.3 | 0.00 | 0.00 | 0.00 | 100 | 1016.8 |
| 20260505233045 | 27 | 1 | 1.6 | 11.3 | 0.00 | 0.00 | 0.00 | 100 | 1016.8 |
| 20260505233026 | 27 | 7 | 6.4 | 17.7 | 0.00 | 0.00 | 0.00 | 100 | 1016.7 |
| 20260505232838 | 27 | 7 | 6.4 | 17.7 | 0.00 | 0.00 | 0.00 | 100 | 1016.7 |
| 20260505232545 | 27 | 7 | 6.4 | 17.7 | 0.00 | 0.00 | 0.00 | 100 | 1016.7 |
| 20260505232317 | 28 | 337 | 9.7 | 17.7 | 0.00 | 0.00 | 0.00 | 100 | 1016.7 |
| 20260505232045 | 28 | 337 | 9.7 | 17.7 | 0.00 | 0.00 | 0.00 | 100 | 1016.7 |
| 20260505231933 | 28 | 307 | 12.9 | 19.3 | 0.00 | 0.00 | 0.00 | 100 | 1016.6 |
| 20260505231858 | 28 | 307 | 12.9 | 19.3 | 0.00 | 0.00 | 0.00 | 100 | 1016.6 |
| 20260505231545 | 28 | 307 | 12.9 | 19.3 | 0.00 | 0.00 | 0.00 | 100 | 1016.6 |
| 20260505231120 | 28 | 14 | 6.4 | 17.7 | 0.00 | 0.00 | 0.00 | 100 | 1016.6 |
| 20260505231045 | 28 | 14 | 6.4 | 17.7 | 0.00 | 0.00 | 0.00 | 100 | 1016.6 |
| 20260505230817 | 28 | 347 | 8.0 | 14.5 | 0.00 | 0.00 | 0.00 | 100 | 1016.6 |
| 20260505230545 | 28 | 347 | 8.0 | 14.5 | 0.00 | 0.00 | 0.00 | 100 | 1016.6 |
| 20260505230228 | 28 | 284 | 4.8 | 16.1 | 0.00 | 0.00 | 0.00 | 100 | 1016.6 |
| 20260505230045 | 28 | 284 | 4.8 | 16.1 | 0.00 | 0.00 | 0.00 | 100 | 1016.6 |
| 20260505230035 | 28 | 289 | 4.8 | 14.5 | 0.00 | 0.00 | 0.00 | 100 | 1016.6 |
| 20260505225728 | 28 | 289 | 4.8 | 14.5 | 0.00 | 0.00 | 0.00 | 100 | 1016.6 |
| 20260505225545 | 28 | 289 | 4.8 | 14.5 | 0.00 | 0.00 | 0.00 | 100 | 1016.6 |
| 20260505225045 | 28 | 271 | 4.8 | 12.9 | 0.00 | 0.00 | 0.00 | 100 | 1016.5 |
| 20260505224935 | 28 | 264 | 4.8 | 16.1 | 0.00 | 0.00 | 0.00 | 100 | 1016.6 |
| 20260505224546 | 28 | 264 | 4.8 | 16.1 | 0.00 | 0.00 | 0.00 | 100 | 1016.6 |
| 20260505224046 | 28 | 257 | 6.4 | 17.7 | 0.00 | 0.00 | 0.00 | 100 | 1016.5 |
| 20260505224018 | 28 | 286 | 3.2 | 14.5 | 0.00 | 0.00 | 0.00 | 100 | 1016.5 |
| 20260505223546 | 28 | 286 | 3.2 | 14.5 | 0.00 | 0.00 | 0.00 | 100 | 1016.5 |
| 20260505223046 | 28 | 312 | 8.0 | 17.7 | 0.00 | 0.00 | 0.00 | 100 | 1016.5 |
| 20260505222814 | 28 | 293 | 11.3 | 17.7 | 0.00 | 0.00 | 0.00 | 100 | 1016.4 |
| 20260505222546 | 28 | 293 | 11.3 | 17.7 | 0.00 | 0.00 | 0.00 | 100 | 1016.4 |
| 20260505222520 | 28 | 278 | 9.7 | 17.7 | 0.00 | 0.00 | 0.00 | 100 | 1016.3 |
| 20260505222046 | 28 | 278 | 9.7 | 17.7 | 0.00 | 0.00 | 0.00 | 100 | 1016.3 |
| 20260505221810 | 28 | 323 | 4.8 | 20.9 | 0.00 | 0.00 | 0.00 | 100 | 1016.3 |
| 20260505221546 | 28 | 323 | 4.8 | 20.9 | 0.00 | 0.00 | 0.00 | 100 | 1016.3 |
| 20260505221301 | 28 | 284 | 6.4 | 17.7 | 0.00 | 0.00 | 0.00 | 100 | 1016.4 |
| 20260505221046 | 28 | 284 | 6.4 | 17.7 | 0.00 | 0.00 | 0.00 | 100 | 1016.4 |
| 20260505220546 | 29 | 278 | 14.5 | 17.7 | 0.00 | 0.00 | 0.00 | 100 | 1016.4 |
| 20260505220046 | 29 | 289 | 11.3 | 19.3 | 0.00 | 0.00 | 0.00 | 100 | 1016.3 |
| 20260505215812 | 30 | 267 | 9.7 | 17.7 | 0.00 | 0.00 | 0.00 | 100 | 1016.3 |
| 20260505215546 | 30 | 267 | 9.7 | 17.7 | 0.00 | 0.00 | 0.00 | 100 | 1016.3 |
| 20260505215046 | 30 | 300 | 9.7 | 19.3 | 0.00 | 0.00 | 0.00 | 100 | 1016.3 |
| 20260505214744 | 30 | 23 | 3.2 | 11.3 | 0.00 | 0.00 | 0.00 | 100 | 1016.1 |
| 20260505214546 | 30 | 282 | 4.8 | 20.9 | 0.00 | 0.00 | 0.00 | 100 | 1016.2 |
| 20260505214046 | 30 | 264 | 9.7 | 14.5 | 0.00 | 0.00 | 0.00 | 100 | 1016.2 |
| 20260505213642 | 31 | 309 | 9.7 | 16.1 | 0.00 | 0.00 | 0.00 | 100 | 1016.1 |
| 20260505213546 | 31 | 309 | 9.7 | 16.1 | 0.00 | 0.00 | 0.00 | 100 | 1016.1 |
| 20260505213046 | 30 | 23 | 3.2 | 11.3 | 0.00 | 0.00 | 0.00 | 100 | 1016.1 |
| 20260505213002 | 31 | 85 | 4.8 | 8.0 | 0.00 | 0.00 | 0.00 | 100 | 1016.1 |
| 20260505212546 | 30 | 262 | 6.4 | 11.3 | 0.00 | 0.00 | 0.00 | 100 | 1016.0 |
| 20260505212311 | 31 | 310 | 0.0 | 8.0 | 0.00 | 0.00 | 0.00 | 100 | 1016.1 |
| 20260505212046 | 31 | 310 | 0.0 | 8.0 | 0.00 | 0.00 | 0.00 | 100 | 1016.1 |
| 20260505211546 | 31 | 146 | 0.0 | 8.0 | 0.00 | 0.00 | 0.00 | 100 | 1016.1 |
| 20260505211046 | 31 | 85 | 4.8 | 8.0 | 0.00 | 0.00 | 0.00 | 100 | 1016.1 |
| 20260505210921 | 33 | 37 | 0.0 | 0.0 | 0.00 | 0.00 | 0.00 | 100 | 1016.1 |
| 20260505210546 | 33 | 37 | 0.0 | 0.0 | 0.00 | 0.00 | 0.00 | 100 | 1016.1 |
| 20260505210046 | 32 | 37 | 0.0 | 4.8 | 0.00 | 0.00 | 0.00 | 100 | 1016.1 |
| 20260505205952 | 32 | 11 | 0.0 | 8.0 | 0.00 | 0.00 | 0.00 | 100 | 1016.0 |
| 20260505205546 | 32 | 11 | 0.0 | 8.0 | 0.00 | 0.00 | 0.00 | 100 | 1016.0 |
| 20260505205110 | 32 | 165 | 3.2 | 4.8 | 0.00 | 0.00 | 0.00 | 100 | 1016.1 |
| 20260505205046 | 32 | 316 | 3.2 | 4.8 | 0.00 | 0.00 | 0.00 | 100 | 1016.1 |
| 20260505204546 | 31 | 74 | 3.2 | 9.7 | 0.00 | 0.00 | 0.00 | 100 | 1016.1 |
| 20260505204137 | 32 | 165 | 3.2 | 4.8 | 0.00 | 0.00 | 0.00 | 100 | 1016.1 |
| 20260505204046 | 32 | 165 | 3.2 | 4.8 | 0.00 | 0.00 | 0.00 | 100 | 1016.1 |
| 20260505203804 | 32 | 7 | 0.0 | 3.2 | 0.00 | 0.00 | 0.00 | 100 | 1016.2 |
| 20260505203546 | 32 | 7 | 0.0 | 3.2 | 0.00 | 0.00 | 0.00 | 100 | 1016.2 |